Location: Malanoce
(44.2500°N, 7.4667°E)
Time: 22:16:11
(UTC+00:00)

Cosmos 2344 - Pass Details

Date: 17 November 2025
Orbit: 1197 x 3045 km, 63.3° (Epoch: 11 December)

Event Time Altitude Azimuth Distance (km) Brightness Sun altitude
Rises 18:33:52 0° 322° (NW) 4,232 6.8 -27.2°
Reaches altitude 10° 18:36:24 10° 325° (NW) 3,356 6.2 -27.6°
Maximum altitude 18:44:28 75° 51° (NE) 1,632 3.9 -29.1°
Enters shadow 18:47:32 49° 122° (ESE) 2,096 4.3 -29.6°
